VENUS61 KADW-KNBG

Flight info

Callsign VENUS61
Flight time N/A
Altitude 40000
Route JEFSN2 MELTN OMENS Q22 CATLN Q56 SJI MNSTR1
Aircraft B737/M-SDE2E3FGHIRWXY/LB1

Departure

Time N/A
Airport Joint Base Andrews (KADW)

Arrival

Time 2026-04-25 12:39
Airport New Orleans NAS JRB/Alvin Callender Field (KNBG)
Time Latitude Longitude Altitude Speed Heading
2026-04-25 12:10 30.88710 -88.14476 39934 ft 426 kts 234°
2026-04-25 12:10 30.86765 -88.17065 39978 ft 424 kts 234°
2026-04-25 12:10 30.82877 -88.22250 39984 ft 424 kts 234°
2026-04-25 12:11 30.78977 -88.27454 39428 ft 429 kts 234°
2026-04-25 12:11 30.77015 -88.30060 38848 ft 429 kts 233°
2026-04-25 12:11 30.75054 -88.32663 38231 ft 427 kts 233°
2026-04-25 12:12 30.73128 -88.35279 37588 ft 424 kts 237°
2026-04-25 12:12 30.71510 -88.38126 36844 ft 420 kts 246°
2026-04-25 12:12 30.70215 -88.41162 36166 ft 419 kts 247°
2026-04-25 12:12 30.68925 -88.44186 35594 ft 416 kts 246°
2026-04-25 12:13 30.67627 -88.47175 35056 ft 413 kts 246°
2026-04-25 12:13 30.66322 -88.50145 34537 ft 415 kts 246°
2026-04-25 12:13 30.65002 -88.53137 34023 ft 426 kts 246°
2026-04-25 12:13 30.63617 -88.56266 33466 ft 434 kts 245°
2026-04-25 12:14 30.62232 -88.59393 32911 ft 436 kts 245°
2026-04-25 12:14 30.60840 -88.62530 32314 ft 437 kts 245°
2026-04-25 12:14 30.59453 -88.65653 31599 ft 442 kts 245°
2026-04-25 12:14 30.58043 -88.68823 31020 ft 441 kts 245°
2026-04-25 12:15 30.56649 -88.71972 30474 ft 439 kts 246°
2026-04-25 12:15 30.55272 -88.75140 29928 ft 440 kts 245°
2026-04-25 12:15 30.53855 -88.78304 29390 ft 445 kts 245°
2026-04-25 12:15 30.52414 -88.81502 28790 ft 450 kts 245°
2026-04-25 12:16 30.50962 -88.84726 28184 ft 451 kts 245°
2026-04-25 12:16 30.49515 -88.87950 27577 ft 451 kts 245°
2026-04-25 12:16 30.48072 -88.91175 26966 ft 450 kts 245°
2026-04-25 12:16 30.46631 -88.94399 26353 ft 450 kts 246°
2026-04-25 12:17 30.45190 -88.97620 25745 ft 451 kts 246°
2026-04-25 12:17 30.43745 -89.00851 25143 ft 451 kts 246°
2026-04-25 12:17 30.42319 -89.04029 24555 ft 449 kts 246°
2026-04-25 12:17 30.40881 -89.07236 23979 ft 447 kts 246°
2026-04-25 12:18 30.39563 -89.10478 23415 ft 442 kts 250°
2026-04-25 12:18 30.38389 -89.13667 22814 ft 438 kts 251°
2026-04-25 12:18 30.37873 -89.15110 22536 ft 437 kts 251°
2026-04-25 12:19 30.35964 -89.20437 21528 ft 424 kts 251°
2026-04-25 12:19 30.34442 -89.24600 20725 ft 416 kts 250°
2026-04-25 12:19 30.33306 -89.27675 20129 ft 413 kts 250°
2026-04-25 12:20 30.32180 -89.30709 19561 ft 409 kts 250°
2026-04-25 12:20 30.31064 -89.33717 18983 ft 405 kts 251°
2026-04-25 12:20 30.30832 -89.34352 18859 ft 405 kts 251°
2026-04-25 12:20 30.30087 -89.36383 18463 ft 403 kts 250°
2026-04-25 12:21 30.28953 -89.39327 17866 ft 397 kts 249°
2026-04-25 12:21 30.27867 -89.42254 17269 ft 395 kts 250°
2026-04-25 12:21 30.26806 -89.45170 16762 ft 390 kts 250°
2026-04-25 12:21 30.25744 -89.48048 16191 ft 389 kts 250°
2026-04-25 12:22 30.24676 -89.50920 15598 ft 388 kts 250°
2026-04-25 12:22 30.23609 -89.53784 15001 ft 387 kts 250°
2026-04-25 12:22 30.22542 -89.56640 14398 ft 384 kts 249°
2026-04-25 12:22 30.21484 -89.59478 13802 ft 385 kts 249°
2026-04-25 12:23 30.20411 -89.62293 13223 ft 379 kts 249°
2026-04-25 12:23 30.19356 -89.65075 12614 ft 376 kts 250°
2026-04-25 12:23 30.18372 -89.67844 12021 ft 364 kts 249°
2026-04-25 12:23 30.17397 -89.70417 11452 ft 343 kts 249°
2026-04-25 12:24 30.16462 -89.72900 11004 ft 322 kts 249°
2026-04-25 12:24 30.15466 -89.75072 10701 ft 305 kts 233°
2026-04-25 12:24 30.13848 -89.76555 10474 ft 292 kts 213°
2026-04-25 12:24 30.12036 -89.77452 10169 ft 279 kts 198°
2026-04-25 12:25 30.10165 -89.77851 9906 ft 267 kts 193°
2026-04-25 12:25 30.08363 -89.78159 9643 ft 258 kts 191°
2026-04-25 12:25 30.06608 -89.78422 9401 ft 249 kts 195°
2026-04-25 12:25 30.04967 -89.78809 9181 ft 235 kts 195°
2026-04-25 12:26 30.03411 -89.79138 8969 ft 228 kts 192°
2026-04-25 12:26 30.01861 -89.79394 8766 ft 222 kts 194°
2026-04-25 12:26 30.00339 -89.79650 8515 ft 218 kts 193°
2026-04-25 12:26 29.98858 -89.79935 8316 ft 213 kts 193°
2026-04-25 12:27 29.97419 -89.80210 8101 ft 205 kts 193°
2026-04-25 12:27 29.96018 -89.80415 7894 ft 201 kts 189°
2026-04-25 12:27 29.94638 -89.80702 7711 ft 202 kts 199°
2026-04-25 12:27 29.93271 -89.81096 7511 ft 202 kts 194°
2026-04-25 12:28 29.91867 -89.81325 7330 ft 204 kts 192°
2026-04-25 12:28 29.90480 -89.81634 7131 ft 203 kts 195°
2026-04-25 12:28 29.89085 -89.81898 6938 ft 202 kts 193°
2026-04-25 12:28 29.87682 -89.82126 6730 ft 202 kts 195°
2026-04-25 12:29 29.86328 -89.82442 6518 ft 195 kts 191°
2026-04-25 12:29 29.85040 -89.82646 6320 ft 184 kts 195°
2026-04-25 12:29 29.83802 -89.82884 6147 ft 178 kts 194°
2026-04-25 12:29 29.82596 -89.83116 6093 ft 173 kts 193°
2026-04-25 12:30 29.81385 -89.83324 6001 ft 176 kts 193°
2026-04-25 12:30 29.80161 -89.83487 5865 ft 179 kts 194°
2026-04-25 12:30 29.78942 -89.83816 5681 ft 182 kts 194°
2026-04-25 12:30 29.77707 -89.84037 5504 ft 177 kts 195°
2026-04-25 12:31 29.76522 -89.84297 5355 ft 171 kts 194°
2026-04-25 12:31 29.75363 -89.84533 5230 ft 168 kts 194°
2026-04-25 12:31 29.74218 -89.84806 5103 ft 168 kts 190°
2026-04-25 12:31 29.73034 -89.84938 4967 ft 173 kts 188°
2026-04-25 12:32 29.71867 -89.85161 4781 ft 167 kts 194°
2026-04-25 12:32 29.70716 -89.85406 4622 ft 170 kts 191°
2026-04-25 12:32 29.69540 -89.85608 4460 ft 172 kts 191°
2026-04-25 12:32 29.68351 -89.85840 4290 ft 173 kts 191°
2026-04-25 12:33 29.67197 -89.86063 4093 ft 162 kts 193°
2026-04-25 12:33 29.66133 -89.86288 4039 ft 156 kts 193°
2026-04-25 12:33 29.65031 -89.86526 3896 ft 167 kts 189°
2026-04-25 12:33 29.63922 -89.86754 3728 ft 155 kts 209°
2026-04-25 12:34 29.63369 -89.87712 3568 ft 151 kts 264°
2026-04-25 12:34 29.63551 -89.88935 3485 ft 158 kts 279°
2026-04-25 12:34 29.64091 -89.90046 3273 ft 167 kts 321°
2026-04-25 12:34 29.64836 -89.90328 3234 ft 170 kts 350°
2026-04-25 12:35 29.66259 -89.90966 3036 ft 164 kts 329°
2026-04-25 12:35 29.67293 -89.91574 2870 ft 169 kts 331°
2026-04-25 12:35 29.68360 -89.92138 2703 ft 168 kts 335°
2026-04-25 12:35 29.69409 -89.92705 2570 ft 165 kts 330°
2026-04-25 12:36 29.70425 -89.93282 2392 ft 161 kts 331°
2026-04-25 12:36 29.71438 -89.93827 2242 ft 160 kts 336°
2026-04-25 12:36 29.72465 -89.94329 2102 ft 161 kts 335°
2026-04-25 12:36 29.73442 -89.94939 1953 ft 161 kts 323°
2026-04-25 12:37 29.74314 -89.95734 1738 ft 156 kts 322°
2026-04-25 12:37 29.75135 -89.96493 1524 ft 149 kts 316°
2026-04-25 12:37 29.75921 -89.97273 1344 ft 153 kts 320°
2026-04-25 12:37 29.76738 -89.98037 1138 ft 148 kts 322°
2026-04-25 12:38 29.77515 -89.98763 935 ft 143 kts 322°
2026-04-25 12:38 29.78278 -89.99482 752 ft 140 kts 322°
2026-04-25 12:38 29.79021 -90.00184 561 ft 136 kts 322°
2026-04-25 12:38 29.79746 -90.00871 345 ft 135 kts 323°
2026-04-25 12:39 29.80468 -90.01557 172 ft 134 kts 322°
2026-04-25 12:39 29.81174 -90.02215 27 ft 123 kts 322°
2026-04-25 12:39 29.81726 -90.02731 11 ft 74 kts 321°
2026-04-25 12:39 29.81976 -90.02965 10 ft 32 kts 320°
2026-04-25 12:40 29.82135 -90.03117 13 ft 28 kts 321°
2026-04-25 12:40 29.82286 -90.03260 14 ft 24 kts 321°
2026-04-25 12:40 29.82404 -90.03200 15 ft 21 kts 51°
2026-04-25 12:40 29.82465 -90.03113 14 ft 11 kts 51°
2026-04-25 12:41 29.82509 -90.03044 12 ft 11 kts 36°
2026-04-25 12:41 29.82556 -90.03032 11 ft 0 kts 356°
2026-04-25 12:41 29.82536 -90.03036 12 ft 7 kts 152°
2026-04-25 12:41 29.82500 -90.02997 12 ft 7 kts 133°
2026-04-25 12:42 29.82499 -90.02973 12 ft 2 kts 27°
2026-04-25 12:42 29.82503 -90.02971 12 ft 2 kts 27°
2026-04-25 12:42 29.82523 -90.02954 12 ft 2 kts 40°